When you browse on this site, cookies collect data to enhance your experience and personalize the content and advertising you see.
Visit our Privacy Policy to learn more. By continuing to use the site, you agree to this use of cookies and data.

Meteo pe oră la Aliganj

Astăzi, 7 August, Vineri

Timp Temperatura Precipitaţii Vânt Presiune Umiditate
00:00 +32°C° 0 mm 5 m/s 735 mmHg 70%
01:00 +32°C° 0 mm 5 m/s 735 mmHg 71%
02:00 +32°C° 0 mm 4 m/s 735 mmHg 73%
03:00 +32°C° 0 mm 4 m/s 735 mmHg 74%
04:00 +30°C° 0 mm 4 m/s 735 mmHg 76%
05:00 +30°C° 0 mm 4 m/s 736 mmHg 78%
06:00 +32°C° 0 mm 4 m/s 736 mmHg 75%
07:00 +32°C° 0 mm 4 m/s 736 mmHg 73%
08:00 +33°C° 0 mm 4 m/s 737 mmHg 70%
09:00 +35°C° 0 mm 4 m/s 737 mmHg 64%
10:00 +36°C° 0 mm 4 m/s 736 mmHg 57%
11:00 +38°C° 0 mm 4 m/s 737 mmHg 48%
12:00 +38°C° 0 mm 4 m/s 736 mmHg 46%
13:00 +38°C° 0 mm 4 m/s 735 mmHg 44%
14:00 +40°C° 0 mm 4 m/s 735 mmHg 43%
15:00 +39°C° 0 mm 3 m/s 734 mmHg 44%
16:00 +38°C° 0 mm 3 m/s 734 mmHg 45%
17:00 +38°C° 0 mm 2 m/s 734 mmHg 46%
18:00 +37°C° 0 mm 2 m/s 734 mmHg 49%
19:00 +36°C° 0 mm 2 m/s 734 mmHg 53%
20:00 +35°C° 0 mm 3 m/s 735 mmHg 56%
21:00 +35°C° 0 mm 2 m/s 735 mmHg 57%
22:00 +35°C° 0 mm 2 m/s 735 mmHg 58%
23:00 +34°C° 0 mm 2 m/s 735 mmHg 59%

Mâine, 8 August, Sâmbătă

Timp Temperatura Precipitaţii Vânt Presiune Umiditate
00:00 +34°C° 0 mm 2 m/s 735 mmHg 60%
01:00 +33°C° 0 mm 1 m/s 735 mmHg 62%
02:00 +32°C° 0 mm 1 m/s 735 mmHg 63%
03:00 +32°C° 0 mm 1 m/s 735 mmHg 63%
04:00 +32°C° 0 mm 1 m/s 735 mmHg 64%
05:00 +32°C° 0 mm 1 m/s 734 mmHg 65%
06:00 +33°C° 0 mm 1 m/s 735 mmHg 61%
07:00 +35°C° 0 mm 2 m/s 735 mmHg 58%
08:00 +36°C° 0 mm 2 m/s 736 mmHg 55%
09:00 +37°C° 0 mm 2 m/s 735 mmHg 51%
10:00 +38°C° 0 mm 2 m/s 735 mmHg 48%
11:00 +39°C° 0 mm 2 m/s 735 mmHg 44%
12:00 +39°C° 0 mm 2 m/s 734 mmHg 43%
13:00 +40°C° 0 mm 2 m/s 734 mmHg 42%
14:00 +40°C° 0 mm 2 m/s 733 mmHg 42%
15:00 +40°C° 0 mm 1 m/s 733 mmHg 42%
16:00 +40°C° 0 mm 1 m/s 732 mmHg 43%
17:00 +39°C° 0 mm 1 m/s 731 mmHg 44%
18:00 +39°C° 0 mm 1 m/s 732 mmHg 46%
19:00 +37°C° 0 mm 1 m/s 732 mmHg 48%
20:00 +36°C° 0 mm 1 m/s 733 mmHg 50%
21:00 +36°C° 0 mm 1 m/s 733 mmHg 51%
22:00 +36°C° 0 mm 1 m/s 733 mmHg 52%
23:00 +35°C° 0 mm 1 m/s 733 mmHg 53%

Poimâine, 9 August, Duminică

Timp Temperatura Precipitaţii Vânt Presiune Umiditate
00:00 +35°C° 0 mm 1 m/s 733 mmHg 55%
01:00 +35°C° 0 mm 1 m/s 733 mmHg 56%
02:00 +34°C° 0 mm 1 m/s 732 mmHg 57%
03:00 +34°C° 0 mm 1 m/s 732 mmHg 58%
04:00 +34°C° 0 mm 1 m/s 732 mmHg 60%
05:00 +34°C° 0 mm 1 m/s 732 mmHg 61%
06:00 +34°C° 0 mm 1 m/s 733 mmHg 59%
07:00 +35°C° 0 mm 1 m/s 733 mmHg 57%
08:00 +36°C° 0 mm 1 m/s 733 mmHg 55%
09:00 +36°C° 0 mm 1 m/s 733 mmHg 53%
10:00 +38°C° 0 mm 2 m/s 733 mmHg 50%
11:00 +39°C° 0 mm 2 m/s 733 mmHg 48%
12:00 +40°C° 0 mm 2 m/s 732 mmHg 45%
13:00 +40°C° 0 mm 1 m/s 732 mmHg 42%
14:00 +41°C° 0 mm 1 m/s 732 mmHg 40%
15:00 +41°C° 0 mm 1 m/s 731 mmHg 40%
16:00 +41°C° 0 mm 1 m/s 731 mmHg 41%
17:00 +41°C° 0 mm 1 m/s 731 mmHg 42%
18:00 +40°C° 0.1 mm 1 m/s 731 mmHg 45%
19:00 +39°C° 0.1 mm 1 m/s 731 mmHg 48%
20:00 +37°C° 0.1 mm 1 m/s 732 mmHg 52%
21:00 +36°C° 0.6 mm 1 m/s 732 mmHg 56%
22:00 +36°C° 0.6 mm 2 m/s 732 mmHg 60%
23:00 +35°C° 0.6 mm 2 m/s 732 mmHg 65%

10 August, Luni

Timp Temperatura Precipitaţii Vânt Presiune Umiditate
00:00 +34°C° 1.6 mm 3 m/s 732 mmHg 70%
01:00 +33°C° 1.6 mm 3 m/s 732 mmHg 75%
02:00 +31°C° 1.6 mm 3 m/s 732 mmHg 80%
03:00 +31°C° 3.7 mm 3 m/s 732 mmHg 81%
04:00 +30°C° 3.7 mm 2 m/s 732 mmHg 83%
05:00 +30°C° 3.7 mm 2 m/s 732 mmHg 84%
06:00 +30°C° 0.2 mm 3 m/s 733 mmHg 83%
07:00 +30°C° 0.2 mm 3 m/s 733 mmHg 81%
08:00 +32°C° 0.2 mm 4 m/s 734 mmHg 80%
09:00 +33°C° 0.1 mm 4 m/s 734 mmHg 77%
10:00 +33°C° 0.1 mm 4 m/s 734 mmHg 74%
11:00 +34°C° 0.1 mm 5 m/s 734 mmHg 71%
12:00 +35°C° 2 mm 4 m/s 734 mmHg 71%
13:00 +35°C° 2 mm 3 m/s 734 mmHg 71%
14:00 +35°C° 2 mm 3 m/s 733 mmHg 71%
15:00 +34°C° 1.8 mm 3 m/s 733 mmHg 74%
16:00 +33°C° 1.8 mm 3 m/s 733 mmHg 77%
17:00 +33°C° 1.8 mm 3 m/s 733 mmHg 80%
18:00 +31°C° 0.2 mm 3 m/s 733 mmHg 82%
19:00 +31°C° 0.2 mm 2 m/s 733 mmHg 84%
20:00 +31°C° 0.2 mm 2 m/s 733 mmHg 85%
21:00 +30°C° 0.3 mm 2 m/s 734 mmHg 86%
22:00 +30°C° 0.3 mm 2 m/s 734 mmHg 87%
23:00 +30°C° 0.3 mm 2 m/s 734 mmHg 87%

11 August, Marţi

Timp Temperatura Precipitaţii Vânt Presiune Umiditate
00:00 +30°C° 1 mm 2 m/s 734 mmHg 87%
01:00 +30°C° 1 mm 2 m/s 733 mmHg 87%
02:00 +30°C° 1 mm 1 m/s 733 mmHg 87%
03:00 +30°C° 1.3 mm 2 m/s 733 mmHg 88%
04:00 +29°C° 1.3 mm 2 m/s 733 mmHg 88%
05:00 +29°C° 1.3 mm 3 m/s 733 mmHg 88%
06:00 +29°C° 0.4 mm 3 m/s 733 mmHg 89%
07:00 +29°C° 0.4 mm 3 m/s 734 mmHg 90%
08:00 +29°C° 0.4 mm 3 m/s 734 mmHg 90%
09:00 +29°C° 0.1 mm 3 m/s 734 mmHg 88%
10:00 +29°C° 0.1 mm 3 m/s 734 mmHg 87%
11:00 +30°C° 0.1 mm 2 m/s 734 mmHg 85%
12:00 +30°C° 0 mm 2 m/s 734 mmHg 83%
13:00 +30°C° 0 mm 1 m/s 734 mmHg 81%
14:00 +31°C° 0 mm 1 m/s 733 mmHg 79%
15:00 +31°C° 0.1 mm 1 m/s 733 mmHg 77%
16:00 +32°C° 0.1 mm 1 m/s 732 mmHg 74%
17:00 +32°C° 0.1 mm 1 m/s 732 mmHg 72%
18:00 +32°C° 0.3 mm 1 m/s 733 mmHg 74%
19:00 +31°C° 0.3 mm 2 m/s 733 mmHg 77%
20:00 +31°C° 0.3 mm 2 m/s 733 mmHg 80%
21:00 +31°C° 1.5 mm 2 m/s 734 mmHg 81%
22:00 +30°C° 1.5 mm 2 m/s 734 mmHg 82%
23:00 +30°C° 1.5 mm 3 m/s 734 mmHg 83%

12 August, Miercuri

Timp Temperatura Precipitaţii Vânt Presiune Umiditate
00:00 +30°C° 0.7 mm 3 m/s 734 mmHg 84%
01:00 +30°C° 0.7 mm 3 m/s 733 mmHg 84%
02:00 +30°C° 0.7 mm 3 m/s 733 mmHg 85%
03:00 +29°C° 2.1 mm 2 m/s 733 mmHg 87%
04:00 +29°C° 2.1 mm 2 m/s 733 mmHg 89%
05:00 +29°C° 2.1 mm 2 m/s 733 mmHg 90%
06:00 +29°C° 8 mm 2 m/s 734 mmHg 91%
07:00 +29°C° 8 mm 2 m/s 734 mmHg 92%
08:00 +29°C° 8 mm 2 m/s 735 mmHg 93%
09:00 +29°C° 2.8 mm 3 m/s 735 mmHg 93%
10:00 +29°C° 2.8 mm 4 m/s 735 mmHg 92%
11:00 +29°C° 2.8 mm 4 m/s 735 mmHg 91%
12:00 +30°C° 0.4 mm 4 m/s 734 mmHg 88%
13:00 +32°C° 0.4 mm 4 m/s 734 mmHg 85%
14:00 +32°C° 0.4 mm 5 m/s 733 mmHg 81%
15:00 +32°C° 0.5 mm 5 m/s 733 mmHg 81%
16:00 +32°C° 0.5 mm 4 m/s 733 mmHg 81%
17:00 +32°C° 0.5 mm 4 m/s 732 mmHg 81%
18:00 +30°C° 0.1 mm 4 m/s 733 mmHg 84%
19:00 +30°C° 0.1 mm 3 m/s 733 mmHg 87%
20:00 +29°C° 0.1 mm 3 m/s 734 mmHg 90%
21:00 +29°C° 0 mm 3 m/s 734 mmHg 90%
22:00 +29°C° 0 mm 3 m/s 734 mmHg 91%
23:00 +28°C° 0 mm 2 m/s 734 mmHg 91%
Arată mai mult